Location: Unspecified
(0.0000°N, 0.0000°E)
Time: 02:37:01
(UTC+00:00)

O/OREOS (USA 219) - Pass Details

Date: 18 December 2019
Orbit: 621 x 646 km, 72.0° (Epoch: 22 May)

Event Time Altitude Azimuth Distance (km) Brightness Sun altitude
Rises 19:17:25 0° 207° (SSW) 2,925 ? -18.5°
Reaches altitude 10° 19:19:46 10° 213° (SSW) 2,019 ? -19.0°
Maximum altitude 19:24:03 42° 284° (WNW) 908 ? -20.0°
Enters shadow 19:27:50 13° 353° (N) 1,833 ? -20.8°
